This demonstration page uses our WeatherBlox Daily Observations layout. Learn more.

Left ArrowRight Arrow

39.51506, -84.39828

Hourly Observations for February 23, 2021

Temp ( °F °C ) Dew Point ( °F °C ) Humidity (%) Winds ( mph kmh ) Pressure ( in mb ) Visibility ( mi km ) Precip ( " mm )
12:15 am 00:15 Mostly Cloudy 33 0.7 30 -1.3 87 87 SSW 8 13 29.89 1012 10 16 0.00 0.00
12:35 am 00:35 Cloudy 32 0.2 29 -1.7 87 87 SSW 7 11 29.87 1012 7 11 0.00 0.00
12:55 am 00:55 Cloudy 31 -0.3 29 -1.4 92 92 SSW 7 11 29.87 1011 7 11 0.00 0.00
1:15 am 01:15 Cloudy 34 1.2 30 -1 85 85 SSW 7 11 29.85 1011 10 16 0.00 0.00
1:35 am 01:35 Cloudy 37 3 30 -1.1 75 75 SW 15 24 29.84 1010 10 16 0.00 0.00
1:55 am 01:55 Cloudy 38 3.4 30 -1.2 72 72 SSW 14 22 29.83 1010 10 16 0.00 0.00
2:15 am 02:15 Cloudy 38 3.5 30 -1.3 71 71 SW 14 22 29.82 1010 10 16 0.00 0.00
2:35 am 02:35 Cloudy 39 3.7 29 -1.4 70 70 SSW 14 22 29.81 1009 10 16 0.00 0.00
2:55 am 02:55 Cloudy 39 3.7 29 -1.5 69 69 SW 14 22 29.80 1009 10 16 0.00 0.00
3:15 am 03:15 Cloudy 39 3.7 29 -1.6 69 69 SSW 14 22 29.79 1009 10 16 0.00 0.00
3:35 am 03:35 Partly Cloudy 38 3.6 29 -1.5 70 70 SSW 13 20 29.78 1008 10 16 0.00 0.00
3:55 am 03:55 Clear 38 3.5 29 -1.5 70 70 SSW 13 20 29.78 1008 10 16 0.00 0.00
4:15 am 04:15 Partly Cloudy 38 3.5 29 -1.5 70 70 SSW 12 19 29.78 1008 10 16 0.00 0.00
4:35 am 04:35 Partly Cloudy 38 3.2 29 -1.6 71 71 SSW 12 19 29.77 1008 10 16 0.00 0.00
4:55 am 04:55 Mostly Cloudy 38 3.2 29 -1.5 72 72 SSW 10 17 29.77 1008 10 16 0.00 0.00
5:15 am 05:15 Mostly Cloudy 37 2.8 30 -1.3 75 75 SSW 7 11 29.78 1008 10 16 0.00 0.00
5:35 am 05:35 Clear 38 3.1 29 -1.5 72 72 SSW 9 15 29.78 1008 10 16 0.00 0.00
5:55 am 05:55 Clear 37 2.7 29 -1.6 74 74 SSW 8 13 29.78 1008 10 16 0.00 0.00
6:15 am 06:15 Mostly Cloudy 37 2.7 29 -1.5 74 74 SSW 8 13 29.79 1009 10 16 0.00 0.00
6:35 am 06:35 Mostly Cloudy 37 2.9 29 -1.4 74 74 S 8 13 29.78 1008 10 16 0.00 0.00
6:55 am 06:55 Partly Cloudy 37 2.8 29 -1.4 74 74 SSW 9 15 29.78 1008 10 16 0.00 0.00
7:15 am 07:15 Clear 36 2.3 29 -1.6 76 76 SW 8 13 29.80 1009 10 16 0.00 0.00
7:35 am 07:35 Sunny 37 2.9 29 -1.5 73 73 SW 9 15 29.80 1009 10 16 0.00 0.00
7:55 am 07:55 Sunny 39 3.7 30 -1.2 71 71 WSW 10 17 29.81 1009 10 16 0.00 0.00
8:15 am 08:15 Sunny 40 4.4 30 -1 68 68 SW 13 20 29.81 1010 10 16 0.00 0.00
8:35 am 08:35 Sunny 40 4.7 31 -0.8 68 68 WSW 15 24 29.83 1010 10 16 0.00 0.00
8:55 am 08:55 Sunny 41 5.1 31 -0.6 67 67 SW 12 19 29.83 1010 10 16 0.00 0.00
9:15 am 09:15 Sunny 42 5.6 31 -0.5 65 65 SW 13 20 29.84 1010 10 16 0.00 0.00
9:35 am 09:35 Sunny 43 6 31 -0.3 64 64 WSW 14 22 29.85 1011 10 16 0.00 0.00
9:55 am 09:55 Sunny 44 6.7 32 -0.1 62 62 WSW 15 24 29.87 1011 10 16 0.00 0.00
10:15 am 10:15 Sunny 44 6.9 32 0.1 62 62 W 14 22 29.87 1011 10 16 0.00 0.00
10:35 am 10:35 Sunny 44 6.8 33 0.3 64 64 W 18 30 29.88 1012 10 16 0.00 0.00
10:55 am 10:55 Sunny 45 7.1 33 0.5 63 63 WSW 17 28 29.89 1012 10 16 0.00 0.00
11:15 am 11:15 Sunny 46 7.5 33 0.7 62 62 WSW 16 26 29.90 1012 10 16 0.00 0.00
11:35 am 11:35 Sunny 46 7.8 33 0.8 62 62 W 18 30 29.90 1013 10 16 0.00 0.00
11:55 am 11:55 Sunny 46 7.8 34 1.2 63 63 W 16 26 29.92 1013 10 16 0.00 0.00
12:15 pm 12:15 Sunny 46 8 34 1.3 63 63 W 15 24 29.93 1014 10 16 0.00 0.00
12:35 pm 12:35 Sunny 47 8.3 35 1.4 62 62 W 15 24 29.93 1014 10 16 0.00 0.00
12:55 pm 12:55 Sunny 47 8.3 35 1.4 62 62 W 13 20 29.94 1014 10 16 0.00 0.00
1:15 pm 13:15 Sunny 47 8.6 35 1.7 62 62 W 15 24 29.94 1014 10 16 0.00 0.00
1:35 pm 13:35 Sunny 48 9 36 2.1 62 62 W 12 19 29.93 1014 10 16 0.00 0.00
1:55 pm 13:55 Sunny 49 9.3 35 1.9 60 60 W 15 24 29.93 1014 10 16 0.00 0.00
2:15 pm 14:15 Sunny 49 9.5 35 1.8 59 59 WNW 12 19 29.94 1014 10 16 0.00 0.00
2:35 pm 14:35 Sunny 49 9.7 35 1.8 58 58 W 15 24 29.94 1014 10 16 0.00 0.00
2:55 pm 14:55 Sunny 50 9.9 35 1.8 57 57 W 12 19 29.94 1014 10 16 0.00 0.00
3:15 pm 15:15 Sunny 50 10 35 1.6 56 56 WNW 12 19 29.96 1015 10 16 0.00 0.00
3:35 pm 15:35 Sunny 51 10.3 35 1.4 54 54 W 15 24 29.96 1014 10 16 0.00 0.00
3:55 pm 15:55 Sunny 51 10.3 34 0.9 52 52 W 10 17 29.97 1015 10 16 0.00 0.00
4:15 pm 16:15 Sunny 51 10.3 33 0.6 51 51 W 10 17 29.97 1015 10 16 0.00 0.00
4:35 pm 16:35 Sunny 50 10.2 33 0.6 52 52 WNW 9 15 29.98 1015 10 16 0.00 0.00
4:55 pm 16:55 Sunny 50 10.1 33 0.6 52 52 W 7 11 29.97 1015 10 16 0.00 0.00
5:15 pm 17:15 Sunny 50 10.1 33 0.4 51 51 WSW 9 15 29.98 1015 10 16 0.00 0.00
5:35 pm 17:35 Sunny 49 9.4 33 0.6 55 55 SW 9 15 29.98 1015 10 16 0.00 0.00
5:55 pm 17:55 Sunny 48 8.7 32 0 55 55 SW 6 9 29.98 1015 10 16 0.00 0.00
6:15 pm 18:15 Sunny 48 8.7 31 -0.5 53 53 W 6 9 29.99 1016 10 16 0.00 0.00
6:35 pm 18:35 Clear 44 6.8 32 -0.1 62 62 W 5 7 30.00 1016 10 16 0.00 0.00
6:55 pm 18:55 Clear 41 5.1 30 -0.9 66 66 Calm 30.00 1016 10 16 0.00 0.00
7:15 pm 19:15 Clear 37 2.6 31 -0.5 80 80 W 3 6 30.03 1017 10 16 0.00 0.00
7:35 pm 19:35 Clear 34 1.3 31 -0.5 88 88 Calm 30.03 1017 10 16 0.00 0.00
7:55 pm 19:55 Clear 37 2.7 31 -0.4 80 80 Calm 30.04 1017 10 16 0.00 0.00
8:15 pm 20:15 Clear 34 1.2 31 -0.6 88 88 Calm 30.05 1018 10 16 0.00 0.00
8:35 pm 20:35 Clear 32 -0.2 30 -1.1 94 94 Calm 30.05 1017 10 16 0.00 0.00
8:55 pm 20:55 Clear 32 -0.1 29 -1.5 90 90 W 3 6 30.05 1017 10 16 0.00 0.00
9:15 pm 21:15 Clear 31 -0.4 29 -1.5 92 92 NE 3 6 30.05 1017 10 16 0.00 0.00
9:35 pm 21:35 Clear 31 -0.4 29 -1.4 93 93 Calm 30.05 1017 10 16 0.00 0.00
9:55 pm 21:55 Clear 30 -1 29 -1.6 96 96 Calm 30.05 1018 10 16 0.00 0.00
10:15 pm 22:15 Clear 30 -1.2 29 -1.9 95 95 Calm 30.05 1018 10 16 0.00 0.00
10:35 pm 22:35 Clear 29 -1.4 28 -2.1 95 95 Calm 30.04 1017 10 16 0.00 0.00
10:55 pm 22:55 Clear 28 -2 27 -2.6 96 96 Calm 30.04 1017 10 16 0.00 0.00
11:15 pm 23:15 Clear 29 -1.8 28 -2.2 97 97 Calm 30.04 1017 10 16 0.00 0.00
11:35 pm 23:35 Clear 28 -2.1 28 -2.4 98 98 Calm 30.03 1017 10 16 0.00 0.00
11:55 pm 23:55 Clear 28 -2.5 27 -2.9 97 97 ENE 3 6 30.03 1017 10 16 0.00 0.00

Powered by AerisWeather